• In Uzbekistan
  • List of Countries
  • For 7 days
  • Water Temperature
  • Satellite Maps
  • Weather Map
  • Weather Widgets
  • user-avatar
    Login

    Hourly Weather La Rioja

    Today, 26 March, Sunday

    Time Temperature Precipitation Wind Pressure Humidity
    00:00 +26°C° 0.6 mm 2 mps 712 mmHg 80%
    01:00 +26°C° 0.6 mm 2 mps 712 mmHg 81%
    02:00 +25°C° 0.6 mm 2 mps 712 mmHg 83%
    03:00 +25°C° 0.1 mm 1 mps 712 mmHg 83%
    04:00 +25°C° 0.1 mm 1 mps 712 mmHg 83%
    05:00 +24°C° 0.1 mm 1 mps 712 mmHg 84%
    06:00 +25°C° 0 mm 1 mps 712 mmHg 80%
    07:00 +26°C° 0 mm 2 mps 712 mmHg 76%
    08:00 +26°C° 0 mm 2 mps 712 mmHg 72%
    09:00 +27°C° 0 mm 2 mps 713 mmHg 67%
    10:00 +29°C° 0 mm 2 mps 713 mmHg 62%
    11:00 +30°C° 0 mm 2 mps 713 mmHg 56%
    12:00 +31°C° 0 mm 3 mps 712 mmHg 53%
    13:00 +33°C° 0 mm 3 mps 711 mmHg 50%
    14:00 +33°C° 0 mm 3 mps 711 mmHg 47%
    15:00 +34°C° 0 mm 3 mps 711 mmHg 47%
    16:00 +34°C° 0 mm 3 mps 710 mmHg 47%
    17:00 +34°C° 0 mm 3 mps 710 mmHg 46%
    18:00 +31°C° 0.5 mm 3 mps 711 mmHg 53%
    19:00 +30°C° 0.5 mm 3 mps 711 mmHg 60%
    20:00 +28°C° 0.5 mm 2 mps 712 mmHg 67%
    21:00 +28°C° 0.7 mm 2 mps 713 mmHg 70%
    22:00 +27°C° 0.7 mm 2 mps 713 mmHg 74%
    23:00 +26°C° 0.7 mm 1 mps 714 mmHg 78%

    Tomorrow, 27 March, Monday

    Time Temperature Precipitation Wind Pressure Humidity
    00:00 +26°C° 0.9 mm 1 mps 714 mmHg 80%
    01:00 +25°C° 0.9 mm 1 mps 713 mmHg 82%
    02:00 +25°C° 0.9 mm 1 mps 713 mmHg 83%
    03:00 +25°C° 0.1 mm 1 mps 713 mmHg 85%
    04:00 +25°C° 0.1 mm 2 mps 714 mmHg 86%
    05:00 +24°C° 0.1 mm 2 mps 714 mmHg 88%
    06:00 +25°C° 0 mm 2 mps 714 mmHg 85%
    07:00 +25°C° 0 mm 2 mps 714 mmHg 82%
    08:00 +26°C° 0 mm 1 mps 715 mmHg 79%
    09:00 +27°C° 0.1 mm 2 mps 715 mmHg 72%
    10:00 +29°C° 0.1 mm 2 mps 715 mmHg 64%
    11:00 +30°C° 0.1 mm 2 mps 715 mmHg 56%
    12:00 +31°C° 0.3 mm 2 mps 714 mmHg 52%
    13:00 +32°C° 0.3 mm 2 mps 714 mmHg 49%
    14:00 +34°C° 0.3 mm 2 mps 713 mmHg 45%
    15:00 +34°C° 0.3 mm 3 mps 713 mmHg 46%
    16:00 +34°C° 0.3 mm 4 mps 712 mmHg 47%
    17:00 +33°C° 0.3 mm 4 mps 712 mmHg 48%
    18:00 +31°C° 0.2 mm 3 mps 713 mmHg 55%
    19:00 +30°C° 0.2 mm 3 mps 713 mmHg 62%
    20:00 +28°C° 0.2 mm 2 mps 714 mmHg 69%
    21:00 +28°C° 0.6 mm 2 mps 714 mmHg 72%
    22:00 +27°C° 0.6 mm 2 mps 715 mmHg 75%
    23:00 +27°C° 0.6 mm 2 mps 716 mmHg 79%

    Day after tomorrow, 28 March, Tuesday

    Time Temperature Precipitation Wind Pressure Humidity
    00:00 +26°C° 0.7 mm 2 mps 715 mmHg 81%
    01:00 +26°C° 0.7 mm 1 mps 715 mmHg 83%
    02:00 +25°C° 0.7 mm 1 mps 715 mmHg 85%
    03:00 +25°C° 0.4 mm 1 mps 715 mmHg 86%
    04:00 +25°C° 0.4 mm 1 mps 715 mmHg 87%
    05:00 +24°C° 0.4 mm 1 mps 714 mmHg 88%
    06:00 +25°C° 0 mm 1 mps 715 mmHg 86%
    07:00 +25°C° 0 mm 1 mps 715 mmHg 83%
    08:00 +26°C° 0 mm 2 mps 716 mmHg 80%
    09:00 +27°C° 0 mm 2 mps 716 mmHg 73%
    10:00 +29°C° 0 mm 2 mps 716 mmHg 66%
    11:00 +30°C° 0 mm 2 mps 716 mmHg 58%
    12:00 +31°C° 0 mm 2 mps 715 mmHg 54%
    13:00 +33°C° 0 mm 3 mps 714 mmHg 49%
    14:00 +34°C° 0 mm 3 mps 713 mmHg 45%
    15:00 +34°C° 0 mm 4 mps 713 mmHg 46%
    16:00 +34°C° 0 mm 4 mps 712 mmHg 47%
    17:00 +34°C° 0 mm 4 mps 712 mmHg 48%
    18:00 +33°C° 0 mm 4 mps 713 mmHg 55%
    19:00 +30°C° 0 mm 4 mps 713 mmHg 62%
    20:00 +29°C° 0 mm 4 mps 714 mmHg 68%
    21:00 +28°C° 0.2 mm 3 mps 714 mmHg 72%
    22:00 +28°C° 0.2 mm 3 mps 714 mmHg 76%
    23:00 +27°C° 0.2 mm 2 mps 714 mmHg 80%

    29 March, Wednesday

    Time Temperature Precipitation Wind Pressure Humidity
    00:00 +27°C° 0.2 mm 2 mps 714 mmHg 82%
    01:00 +26°C° 0.2 mm 2 mps 714 mmHg 83%
    02:00 +26°C° 0.2 mm 2 mps 713 mmHg 84%
    03:00 +26°C° 0.2 mm 2 mps 713 mmHg 85%
    04:00 +25°C° 0.2 mm 1 mps 713 mmHg 86%
    05:00 +25°C° 0.2 mm 1 mps 713 mmHg 86%
    06:00 +26°C° 0 mm 1 mps 713 mmHg 84%
    07:00 +26°C° 0 mm 1 mps 713 mmHg 81%
    08:00 +27°C° 0 mm 1 mps 713 mmHg 79%
    09:00 +28°C° 0 mm 2 mps 713 mmHg 71%
    10:00 +29°C° 0 mm 2 mps 713 mmHg 64%
    11:00 +31°C° 0 mm 3 mps 713 mmHg 56%
    12:00 +33°C° 0.1 mm 3 mps 712 mmHg 53%
    13:00 +34°C° 0.1 mm 3 mps 711 mmHg 49%
    14:00 +35°C° 0.1 mm 3 mps 710 mmHg 46%
    15:00 +35°C° 0.2 mm 4 mps 710 mmHg 46%
    16:00 +35°C° 0.2 mm 4 mps 709 mmHg 47%
    17:00 +34°C° 0.2 mm 5 mps 709 mmHg 48%
    18:00 +33°C° 0.1 mm 4 mps 709 mmHg 54%
    19:00 +30°C° 0.1 mm 4 mps 710 mmHg 60%
    20:00 +29°C° 0.1 mm 4 mps 710 mmHg 67%
    21:00 +28°C° 0.4 mm 3 mps 710 mmHg 70%
    22:00 +28°C° 0.4 mm 3 mps 710 mmHg 74%
    23:00 +27°C° 0.4 mm 2 mps 710 mmHg 78%

    30 March, Thursday

    Time Temperature Precipitation Wind Pressure Humidity
    00:00 +27°C° 0.5 mm 2 mps 710 mmHg 79%
    01:00 +27°C° 0.5 mm 2 mps 709 mmHg 80%
    02:00 +26°C° 0.5 mm 1 mps 709 mmHg 81%
    03:00 +26°C° 0.7 mm 1 mps 709 mmHg 81%
    04:00 +26°C° 0.7 mm 1 mps 709 mmHg 81%
    05:00 +25°C° 0.7 mm 1 mps 709 mmHg 82%
    06:00 +26°C° 0.7 mm 2 mps 710 mmHg 79%
    07:00 +27°C° 0.7 mm 2 mps 710 mmHg 77%
    08:00 +27°C° 0.7 mm 3 mps 711 mmHg 75%
    09:00 +29°C° 0.4 mm 4 mps 711 mmHg 65%
    10:00 +30°C° 0.4 mm 5 mps 711 mmHg 56%
    11:00 +33°C° 0.4 mm 6 mps 712 mmHg 46%
    12:00 +34°C° 0.3 mm 6 mps 711 mmHg 42%
    13:00 +34°C° 0.3 mm 6 mps 711 mmHg 38%
    14:00 +35°C° 0.3 mm 6 mps 710 mmHg 34%
    15:00 +34°C° 0 mm 6 mps 710 mmHg 35%
    16:00 +34°C° 0 mm 6 mps 711 mmHg 35%
    17:00 +33°C° 0 mm 6 mps 711 mmHg 36%
    18:00 +32°C° 0 mm 6 mps 712 mmHg 42%
    19:00 +29°C° 0 mm 5 mps 713 mmHg 47%
    20:00 +28°C° 0 mm 5 mps 714 mmHg 53%
    21:00 +27°C° 0.1 mm 4 mps 715 mmHg 56%
    22:00 +26°C° 0.1 mm 4 mps 715 mmHg 59%
    23:00 +26°C° 0.1 mm 4 mps 716 mmHg 63%

    31 March, Friday

    Time Temperature Precipitation Wind Pressure Humidity
    00:00 +25°C° 0 mm 3 mps 716 mmHg 64%
    01:00 +24°C° 0 mm 3 mps 716 mmHg 66%
    02:00 +24°C° 0 mm 3 mps 716 mmHg 68%
    03:00 +23°C° 0 mm 2 mps 715 mmHg 69%
    04:00 +23°C° 0 mm 2 mps 715 mmHg 71%
    05:00 +21°C° 0 mm 2 mps 715 mmHg 72%
    06:00 +23°C° 0 mm 2 mps 716 mmHg 70%
    07:00 +23°C° 0 mm 2 mps 716 mmHg 68%
    08:00 +23°C° 0 mm 2 mps 717 mmHg 66%
    09:00 +25°C° 0 mm 2 mps 717 mmHg 61%
    10:00 +26°C° 0 mm 3 mps 717 mmHg 56%
    11:00 +27°C° 0 mm 3 mps 716 mmHg 51%
    12:00 +28°C° 0 mm 3 mps 716 mmHg 49%
    13:00 +29°C° 0 mm 3 mps 715 mmHg 47%
    14:00 +30°C° 0 mm 3 mps 715 mmHg 45%
    15:00 +29°C° 0 mm 3 mps 715 mmHg 46%
    16:00 +29°C° 0 mm 3 mps 714 mmHg 48%
    17:00 +29°C° 0 mm 4 mps 714 mmHg 49%
    18:00 +28°C° 0.1 mm 3 mps 715 mmHg 56%
    19:00 +27°C° 0.1 mm 3 mps 716 mmHg 64%
    20:00 +25°C° 0.1 mm 2 mps 716 mmHg 71%
    21:00 +25°C° 0.5 mm 2 mps 716 mmHg 75%
    22:00 +24°C° 0.5 mm 2 mps 717 mmHg 79%
    23:00 +24°C° 0.5 mm 2 mps 717 mmHg 83%
    Show more